Home > Weather > Emmen > Past weeks

Flag for Netherlands Past Weather in Emmen, Netherlands — Yesterday and Last 2 Weeks

Now
74 °F

Overcast.


Feels Like: 77 °F
Forecast: 58 / 72 °F
Wind: 2 mph from West

Location: Meppen

Current Time: Jul 26, 2016 at 4:18:09 PM

Latest Report: Jul 26, 2016 at 3:00 PM


Visibility: 28 mi

Pressure: 30.14 "Hg

Humidity: 54%

Dew Point: 56 °F

Location of EmmenLocation

Past Weather in Emmen — Graph

°F

Emmen Temperature Yesterday

Maximum temperature yesterday: 74 °F (at 4:00 PM)
Minimum temperature yesterday: 64 °F (at 3:00 AM)
Average temperature yesterday: 69 °F

High & Low Weather Summary for the Past Weeks

 TemperatureHumidityPressure
High91 °F (Jul 20, 6:00 PM)97% (Jul 23, 4:00 AM)30.25 "Hg (Jul 23, 4:00 AM)
Low49 °F (Jul 14, 4:00 AM)32% (Jul 20, 4:00 PM)29.79 "Hg (Jul 11, 7:00 PM)
Average66 °F76%30.06 "Hg
* Reported Jul 11 3:00 PM — Jul 26 3:00 PM, Emmen, Weather by CustomWeather, © 2016

Note: Actual official high and low records may vary slightly from our data, if they occured in-between our weather recording intervals... More about our weather records

Advertising

Emmen Weather History for the Previous 24 Hours

Scroll right to see more
 ConditionsComfort  
Time TempWeatherWind HumidityBarometerVisibility
3:00 PM
Tue, Jul 26
74 °FOvercast.2 mph54%30.14 "Hg28 mi
1:00 PM74 °FScattered clouds.N/A49%30.15 "Hg28 mi
12:00 PM72 °FPassing clouds.2 mph55%30.15 "Hg25 mi
10:00 AM67 °FPassing clouds.N/A70%30.16 "Hg12 mi
9:00 AM63 °FPassing clouds.1 mph82%30.15 "Hg7 mi
7:00 AM53 °FFog.No wind96%30.14 "Hg3 mi
6:00 AM53 °FCool.1 mph96%30.13 "Hg0 mi
4:00 AM54 °FCool.No wind96%30.13 "Hg1 mi
3:00 AM56 °FCool.1 mph95%30.13 "Hg1 mi
1:00 AM59 °FCool.1 mph91%30.13 "Hg4 mi
12:00 AM62 °FCool.1 mph85%30.12 "Hg4 mi
10:00 PM
Mon, Jul 25
65 °FMild.1 mph80%30.11 "Hg4 mi
9:00 PM69 °FMild.2 mph77%30.09 "Hg5 mi
7:00 PM73 °FMild.3 mph71%30.07 "Hg5 mi
6:00 PM74 °FMild.5 mph68%30.06 "Hg5 mi
4:00 PM74 °FMild.3 mph67%30.07 "Hg5 mi
Weather by CustomWeather, © 2016

See weather overviewHow to use our weather pages